Dauntless Aviation
Airports Europe Switzerland
LSTA

Raron Airport

Raron, SWITZERLAND

Airport Info
Suggest Updated Information for this Airport

Location

Latitude / Longitude: 46°18'12"N / 7°49'23"E
  46°18.216'N / 7°49.398'E
  46.3036 / 7.8233
Satellite photo at:
Airport distance calculator
From:
Weather Reports

METAR

LSGS
21.7nm SW
LSGS 131950Z AUTO /////KT ///V/// //// // ////// ////// ////// ///// Q////
LSMS
21.7nm SW
LSMS 131950Z AUTO /////KT ///V/// //// // ////// ////// ////// ///// Q////
LIMH
22.8nm S
LIMH 131955Z /////KT CAVOK M02/M19 Q1033 RMK SKC MON LIB VAL NIL VIS MIN 9999
LSMM
29.4nm N
LSMM 131950Z AUTO VRB02KT 0900NDV R10/0750VP2000D R28/P2000N BR FEW038 BKN066 08/08 Q1031 RMK
LSZB
39.2nm NW
LSZB 131950Z VRB01KT 3400 BR FEW001 BKN014 BKN019 09/09 Q1031 NOSIG

TAF

LSGS
21.7nm SW
TAF LSGS 131425Z 1315/1324 VRB03KT 9999 BKN080
LSZB
39.2nm NW
TAF AMD LSZB 131800Z 1318/1324 VRB03KT 4500 BR SCT009 BKN013 BECMG 1318/1321 2500 BKN009 PROB40 1320/1324 0400 FG VV002
LIMW
39.2nm S
TAF LIMW 131700Z 1318/1403 VRB05KT 9999 SCT100
Safelog

 

Dauntless Aviation

© 2007-2018 Dauntless Aviation, all rights reserved
Information provided via PilotNav comes from a variety of official and unofficial data sources. As errors are possible, do not use PilotNav for primary flight planning purposes. Verify any information that you receive via PilotNav with current and canonical charts and other official documents. The material in this database is subject to database copyrights held by Dauntless Aviation and may not be copied without the express permission of Dauntless Aviation - licenses for use of part of all of this data are available for purchase; enquire via the Dauntless Aviation helpdesk. A number of mechanisms and markers exist in the database to protect against and identify infringement / copyright. Automated queries against this website are stictly prohibited, and all activity is logged and analyzed.